Погода в Наумкине

Россия / Пензенская область     52°52′34″N   45°17′51″E
темп.,
°C
ветер,
м/с
пор.,
м/с
влажн.,
%
обл.,
%
осадки,
мм/ч
давл.,
гПа
погр.,
м
4 марта, чт
чт400:00−8з4109660 0.1 1012210
03:00−6зюз5119677 0.1 1010369
06:00−2зюз51194100 0.1 1008779
09:00−2зюз81491100 0.3 1006805
12:00+1зюз91592100 0.1 1004985
15:000зюз91691100 0.1 1003858
18:000зюз81589100 0.0 10021044
21:000з71394100 0.2 1002883
5 марта, пт
пт500:000зюз61292100 0.1 1001628
03:00−1зюз51292100 0.2 1001511
06:00−1з51196100 0.4 1002541
09:00−3ссз4595100 0.8 1004378
12:00−2сз459097 0.1 1006637
15:00−2сз458670 0.2 1009742
18:00−7зсз339136 0.0 101123
21:00−9з239240 0.0 101321
6 марта, сб
сб600:00−10з239597 0.0 101432
03:00−10зсз239598 0.0 101527
06:00−11сз2395100 0.0 101524
09:00−9ссз3592100 0.0 1015207
12:00−7ссз4687100 0.0 1015466
15:00−7ссз467968 0.0 1015617
18:00−12ссз33900 0.0 101627
21:00−15сз23920 0.0 101720
7 марта, вс
вс700:00−16зсз22880 0.0 101720
03:00−15юз238931 0.0 101732
06:00−13юз4109594 0.2 1017275
09:00−10юз6129394 0.3 1015439
12:00−6юз8128396 0.0 1012903
15:00−5юз9158097 0.0 10091045
18:00−6юз101889100 0.1 10061147
21:00−4юз111992100 1.3 10031140
8 марта, пн
пн800:00−5зсз91391100 1.1 1002760
03:00−10з3486100 1.1 100485
06:00−12юз3487100 0.0 100455
09:00−8ю4785100 0.0 1002271
12:00−3зюз7118984 0.3 10001162
15:00−6з11167192 0.8 10021502
18:00−10з7158620 0.0 1006587
21:00−11з6139146 0.0 1010496